Regional Weather Roundup
Issued by NWS Green Bay, WI

Home | Current Version | Previous Version | Graphics & Text | Print | Product List | Glossary Off
Versions: 1 2 3 4 5 6 7 8 9 10 11 12 13 14 15 16 17 18 19 20 21 22 23 24 25 26 27 28 29 30 31 32 33 34 35 36 37 38 39 40 41 42 43 44 45 46 47 48 49 50

000
ASUS43 KGRB 290111
RWRGRB

NORTH-CENTRAL AND NORTHEAST WISCONSIN REGIONAL WEATHER ROUNDUP
NATIONAL WEATHER SERVICE GREEN BAY WI
800 PM CDT SUN AUG 28 2016

WIZ005-009-010>012-018-019-290200-
NORTH CENTRAL WISCONSIN

CITY           SKY/WX    TMP DP  RH WIND       PRES   REMARKS
IRONWOOD       CLEAR     67  64  90 CALM      30.19R
MANITOWISH WTR CLEAR     64  64 100 CALM      30.21R
ARBOR VITAE    CLEAR     71  67  85 CALM      30.21R
EAGLE RIVER    CLEAR     65  64  94 CALM      30.21R
LAND O LAKES   CLEAR     62  60  93 CALM      30.22S
RHINELANDER    CLEAR     67  64  90 CALM      30.22R
PHILLIPS       CLEAR     70  64  82 CALM      30.19R
ANTIGO         CLEAR     67  64  87 CALM      30.22R
TOMAHAWK       CLEAR     65  61  87 CALM      30.22R
MERRILL        CLEAR     69  65  86 CALM      30.21R
$$

WIZ013-073-290200-
NORTHEAST WISCONSIN

CITY           SKY/WX    TMP DP  RH WIND       PRES   REMARKS
IRON MOUNTAIN  CLEAR     70  61  73 CALM      30.19R
MARINETTE      CLEAR    N/A N/A N/A CALM      30.21R
OCONTO         CLEAR     67  65  91 CALM      30.20R
$$

WIZ017-030-035>037-045-290200-
CENTRAL WISCONSIN

CITY           SKY/WX    TMP DP  RH WIND       PRES   REMARKS
MEDFORD        CLEAR     69  66  92 SE3       30.20S
WAUSAU         CLEAR     72  63  73 CALM      30.19R
MOSINEE        CLEAR     70  66  88 CALM      30.21R
MARSHFIELD     CLEAR     72  64  76 SE5       30.19R
WISC RAPIDS      N/A     70  69  97 CALM      30.21R
STEVENS POINT  PTCLDY    70  64  82 CALM      30.21R
WAUPACA        CLEAR     73  69  89 CALM      30.20R
SHAWANO        CLEAR     71  66  84 CALM      30.20R
CLINTONVILLE   CLEAR     70  64  83 CALM      30.20R
WAUTOMA        NOT AVBL
$$

WIZ038-039-048-051-290200-
FOX VALLEY

CITY           SKY/WX    TMP DP  RH WIND       PRES   REMARKS
NWS GREEN BAY  CLEAR     69  67  93 E7        30.20R
APPLETON       PTCLDY    72  63  73 S5        30.19R
OSHKOSH        CLEAR     70  65  84 CALM      30.19R
FOND DU LAC    CLEAR     70  66  87 SE8       30.20R
$$

WIZ022-050-052-290200-
EAST CENTRAL WISCONSIN

CITY           SKY/WX    TMP DP  RH WIND       PRES   REMARKS
EPHRAIM        MOCLDY    66  64  91 S3        30.20S
WASHINGTON ISL NOT AVBL
STURGEON BAY   CLEAR     66  62  87 SE5       30.22R
MANITOWOC      HAZE      68  63  83 SE3       30.22R VSB 1
SHEBOYGAN      CLEAR     66  63  90 CALM      30.21R
$$

LMZ563-521-522-541>543-290200-
LAKESHORE

STATION/POSITION TIME  TEMP    WIND        PRES    VSBY  WAVE
                       AIR SEA DIR/SP/G                  HT/PER
                 (UTC) (F)     (DEG/KT/KT) (MB)    (MI)  (FT/S)
SHEBOYGAN LKSHOR 0100   69     210/  2/  2 1022.4R
KEWAUNEE LKSHORE 0000   65     180/  4/  6 1022.3S
NORTHPORT PIER   0000   71     170/  4/  7 1022.0F
N MID LAKE BUOY  0050   71 72  190/  4/  4 1022.5R         0
S GREEN BAY BUOY 0030   73 74  140/ 12/ 14 1021.9
CHAMBERS ISLAND  0000   72     140/  2/  4 1022.0S
MENOMINEE LKSHOR 0000   72     170/  5/  5 1021.3F
$$




USA.gov is the U.S. government's official web portal to all federal, state and local government web resources and services.